User: anonymous   Login
Location: Unspecified
(0.0000°N, 0.0000°E)
Time: 20:30:45
(UTC+00:00)
Language:

PEHEUNSAT 1 - Orbit

View from above orbital plane
View from above orbital plane
View from above satellite
View from above satellite

Ground track
Ground track

The orbit data is extracted from the following two-line orbital elements,

1 29712U 07001D   18174.79312411 +.00002700 +00000-0 +14818-3 0  9992
2 29712 097.5230 200.2169 0008425 076.6218 283.5953 15.14981351623451
Epoch (UTC): 23 June 2018 19:02:05
Eccentricity: 0.0008425
inclination: 97.5230°
perigee height: 515 km
apogee height: 527 km
right ascension of ascending node: 200.2169°
argument of perigee: 76.6218°
revolutions per day: 15.14981351
mean anomaly at epoch: 283.5953°
orbit number at epoch: 62345

The dashed part of the orbit path shows where the satellite is in the earth's shadow,  

DLR